1520 visiteurs
Prévisions de votre ville :
Vigilance : 3 départements Mise à jour le 20/09/2019 à 06:06 - Voir la carte

Paris Roissy CDG (95380) le 20/09/2019 à 09:30 Choisir station

12°C 54 % NE Vit. moyenne 20 kmh/h

Relevés météo quotidiens pour la station de :

UTC
S: Synop
M: Metar
Loc T°C
(°C)
Td
(°C)
HR
(%)
Vis
(km)
Néb
(octa)
Vent
(km/h)
Pression
(mb)
Précipitations
(mm)
Temps
              MOY
10 min
DIR RAF 1h MESURE VAR SUR 3h    
S 00 h 02h 22.2 19.6 85 40 - 6 13 1021.2 +0.3/3h 0.0/6h - 0.0/3h -
S 01 h 03h 21.9 19.3 85 35 - 6 11 1021.2 +0.2/3h 0.0/1h -
S 02 h 04h 21.3 19.0 87 27 - 4 7 1021.0 -0.2/3h 0.0/1h -
S 03 h 05h 20.9 18.8 88 25 - 4 7 1020.8 -0.4/3h 0.0/3h -
S 04 h 06h 20.7 18.8 89 24 - 6 13 1020.9 -0.3/3h 0.0/1h -
S 05 h 07h 21.0 18.9 88 26 - 6 13 1021.3 +0.3/3h 0.0/1h -
S 06 h 08h 23.2 19.6 80 19 - 6 13 1021.6 +0.8/3h 0.0/12h - 0.0/3h - 0.0/24h -
S 07 h 09h 26.0 20.6 72 40 - 2 6 1022.0 +1.1/3h 0.0/1h -
S 08 h 10h 27.3 20.9 68 28 - 6 9 1022.2 +0.9/3h 0.0/1h -
S 09 h 11h 28.3 21.1 65 19 - 11 20 1022.3 +0.7/3h 0.0/3h -
S 10 h 12h 28.4 20.4 62 19 - 13 22 1022.2 +0.2/3h 0.0/1h -
S 11 h 13h 28.8 21.3 64 40 - 13 20 1022.1 -0.1/3h 0.0/1h -
S 12 h 14h 28.4 22.2 69 35 - 6 13 1021.8 -0.5/3h 0.0/6h - 0.0/3h -
S 13 h 15h 28.8 21.3 64 35 - 6 11 1021.3 -0.9/3h 0.0/1h -
S 14 h 16h 28.8 20.8 62 35 - 11 19 1021.0 -1.1/3h 0.0/1h -
S 15 h 17h 28.8 20.5 61 40 - 9 19 1020.6 -1.2/3h 0.0/3h -
S 16 h 18h 27.8 19.3 60 35 - 11 19 1020.3 -1.0/3h 0.0/1h -
S 17 h 19h 27.9 19.9 62 40 - 7 15 1020.0 -1.0/3h 0.0/1h -
S 18 h 20h 26.9 19.3 63 60 - 6 11 1019.8 -0.8/3h 0.0/12h - 0.0/3h -
S 19 h 21h 26.2 20.5 71 50 - 4 7 1019.8 -0.5/3h 0.0/1h -
S 20 h 22h 25.5 20.7 75 40 - 2 6 1019.9 -0.1/3h 0.0/1h -
S 21 h 23h 24.7 19.5 73 35 - 4 7 1019.8 0.0/3h 0.0/3h -
S 22 h 00h 24.0 19.3 75 35 - 4 7 1019.7 +0.1/3h 0.0/1h -
S 23 h 01h 23.5 19.0 76 45 - 4 7 1019.9 0.0/3h 0.0/1h -
evolution des temperatures
cumul des precipitations
vent moyen et rafales
pression atmospherique

Un tiret (-) signifie que les données ne sont pas disponibles.

Passez la souris sur les pictos temps pour avoir plus de précisions. Passez les flèches sur l'icône de la direction du vent pour voir la direction précise en degrés.

Les données de l'heure en cours sont disponibles à partir de H+15 minutes.


S signifie station Synop, plus complète qu'une station Metar (M). Il y a +1h de différence entre l'heure UTC et l'heure légale en hiver et +2h en été.

Td est la mesure du point de rosée.

HR est l'humidité relative/p>

Vis est la visibilité

Néb est la nébulosité du ciel (couverture nuageuse) exprimée en octas (de 0/8 à 8/8).

Vent moy 10 min donne le vent moyen sur les 10 minutes qui précèdent le relevé.

Vent raf 1h donne la rafale maximale mesurée dans l'heure qui précède le relevé.


Les données les plus anciennes remontent à avril 2014.

Les données présentées sur cette page proviennent des stations météo officielles. Les relevés sont effectués aux normes en vigueur (anémomètre à 10m de haut, thermomètre sous abri normalisé à 2m du sol...)

Météo 60 décline toute responsabilité en cas d'absence de données, d'erreurs, de mauvaise utilisation ou interprétation et n'est pas habilité à fournir des certificats intempéries.